Tiempo atmosférico en la estación meteorológica de Puertollano, Ciudad Real (700 m.)



Fecha
DESCASC
Temp. máxima en grados centígrados (hora)
DESCASC
Temp. mínima en grados centígrados (hora)
DESCASC
Temp. media en grados centígrados
DESCASC
Racha de viento máxima en m/sg (hora)
DESCASC
Velocidad máxima media en intervalos de 10 minutos(hora)
DESCASC
Precipitaciones diarias en mm
DESCASC
Precipitaciones de 00:00 a 06:00 en mm
DESCASC
Precipitaciones de 06:00 a 12:00 en mm
DESCASC
Precipitaciones de 12:00 a 18:00 en mm
DESCASC
Precipitaciones de 18:00 a 24:00 en mm
DESCASC
25-12-2020 9.9 (00:00) 3 (00:00) 6.4 11.39 (13:10) 6.39 (13:10) 0 0 0 0 0
28-12-2020 10.6 (15:50) 3.2 (00:00) 6.9 13.89 (05:10) 6.39 (04:50) 2.2 0.2 2 0 0
20-01-2021 11 (15:20) 1.3 (00:00) 6.1 11.67 (10:20) 5.83 (14:10) 4.2 0 4.2 0 0
01-01-2021 6.8 (16:00) 0.6 (00:00) 3.7 12.22 (00:30) 5.83 (00:30) 1.4 1.4 0 0 0
21-01-2021 13.4 (15:00) 8.5 (00:00) 10.9 11.11 (22:30) 5.28 (22:30) 0.2 0.2 0 0 0
26-12-2020 7.7 (14:40) -2.3 (-00:0) 2.7 10.83 (00:10) 5.28 (00:10) 0 0 0 0 0
29-12-2020 9.1 (16:00) 2.5 (00:00) 5.8 11.39 (14:20) 5.28 (14:00) 0 0 0 0 0
07-01-2021 2.5 (00:00) 0.7 (00:00) 1.6 8.06 (18:00) 4.17 (18:00) 11 4.4 4.2 2.4 0
09-01-2021 4.7 (03:00) 0.4 (00:00) 2.5 7.78 (14:50) 4.17 (14:50) 5.4 4.8 0 0.6 0
31-12-2020 9.1 (14:50) -3.8 (-00:0) 2.7 9.72 (22:20) 4.17 (15:10) 0.8 0 0 0 0.8
27-12-2020 10.8 (15:30) -3.9 (-00:0) 3.5 8.89 (22:10) 4.17 (22:10) 0 0 0 0 0
02-01-2021 6 (16:10) -2 (-00:0) 2 7.5 (14:50) 3.89 (14:00) 0 0 0 0 0
15-01-2021 10.1 (15:50) -3.2 (-00:0) 3.5 6.39 (14:50) 3.89 (15:00) 0 0 0 0 0
11-01-2021 5.1 (15:10) -2.6 (-00:0) 1.3 6.67 (01:10) 3.89 (01:50) 0 0 0 0 0
10-01-2021 4.9 (16:50) -0.1 (09:30) 2.4 7.22 (18:50) 3.89 (18:30) 2.6 2.2 0.4 0 0
05-01-2021 6.4 (16:40) -1.3 (-00:0) 2.6 6.67 (17:50) 3.89 (17:50) 0 0 0 0 0
03-01-2021 7.5 (15:30) -5.2 (-00:0) 1.2 7.5 (15:10) 3.89 (12:50) 0 0 0 0 0
16-01-2021 13.4 (15:10) -3.5 (-00:0) 4.9 6.39 (15:20) 3.61 (15:20) 0 0 0 0 0
23-12-2020 13.7 (14:50) 4.5 (00:00) 9.1 6.39 (14:10) 3.06 (15:50) 0.2 0 0.2 0 0
06-01-2021 5.2 (15:00) -5.5 (-00:0) -0.2 5 (19:50) 3.06 (20:00) 1 0 0 0 1
04-01-2021 4.5 (14:00) -2.9 (-00:0) 0.8 7.22 (15:00) 3.06 (15:00) 1 0 0 1 0
08-01-2021 3.5 (19:40) 0.8 (00:00) 2.2 6.39 (19:40) 2.78 (17:30) 28.2 4 3.8 10 10.4
13-01-2021 12.5 (17:10) -4.6 (-00:0) 4 4.72 (15:10) 2.78 (15:50) 0 0 0 0 0
18-01-2021 15.2 (17:00) -3.7 (-00:0) 5.7 5 (15:00) 2.78 (14:40) 0 0 0 0 0
24-12-2020 13.1 (15:20) 9.2 (00:00) 11.2 5 (15:30) 2.78 (16:00) 0 0 0 0 0
12-01-2021 9 (16:50) -6 (-00:0) 1.5 4.72 (12:40) 2.5 (12:30) 0 0 0 0 0
14-01-2021 13.3 (15:50) -3 (06:50) 5.2 4.72 (16:00) 2.5 (18:30) 0 0 0 0 0
17-01-2021 16.4 (16:30) -3.6 (-00:0) 6.4 3.89 (14:20) 2.5 (14:40) 0 0 0 0 0
19-01-2021 15.4 (15:40) -2.3 (-00:0) 6.5 4.72 (15:30) 2.5 (15:20) 0 0 0 0 0
30-12-2020 9.7 (16:10) -1 (-00:0) 4.3 4.17 (00:10) 2.22 (00:10) 0 0 0 0 0

Gráficas

Temp. máximas Temp. mínimas Temp. medias Precipitaciones Rachas de viento máximas Velocidades máximas media en intervalos de 10 minutos

Datos horarios

Fecha y hora oficial Temperatura (ºC) Velocidad del viento (km/h) Dirección del viento Racha (km/h) Dirección de racha Precipitación (mm) Presión (hPa) Tendencia (hPa) Humedad (%)
2021-01-21 23:00:00 11.1 18 Sudoeste 40 Sudoeste 0 -- -- 88
2021-01-21 22:00:00 11.2 14 Sudoeste 31 Sudoeste 0 -- -- 88
2021-01-21 21:00:00 11.2 14 Sudoeste 32 Sudoeste 0 -- -- 87
2021-01-21 20:00:00 11.6 12 Sudoeste 30 Sudoeste 0 -- -- 83
2021-01-21 19:00:00 11.4 12 Sudoeste 33 Sudoeste 0 -- -- 82
2021-01-21 18:00:00 11.9 15 Sudoeste 37 Sudoeste 0 -- -- 80
2021-01-21 17:00:00 12 14 Sudoeste 37 Sudoeste 0 -- -- 81
2021-01-21 16:00:00 12.2 13 Sudoeste 33 Sudoeste 0 -- -- 78
2021-01-21 15:00:00 13.4 15 Sudoeste 30 Sudoeste 0 -- -- 75
2021-01-21 14:00:00 12.6 15 Sudoeste 32 Sur 0 -- -- 79
2021-01-21 13:00:00 12.5 14 Sudoeste 33 Sudoeste 0 -- -- 83
2021-01-21 12:00:00 10.7 16 Sudoeste 34 Sudoeste 0 -- -- 91
2021-01-21 11:00:00 10.2 13 Sudoeste 26 Sudoeste 0 -- -- 92
2021-01-21 10:00:00 9.3 9 Sudoeste 26 Sudoeste 0 -- -- 94
2021-01-21 09:00:00 8.9 5 Sudoeste 15 Sudoeste 0 -- -- 94
2021-01-21 08:00:00 8.8 9 Sudoeste 19 Sudoeste 0 -- -- 93
2021-01-21 07:00:00 8.8 7 Sudoeste 18 Oeste 0 -- -- 93
2021-01-21 06:00:00 8.8 8 Sudoeste 21 Sudoeste 0 -- -- 92
2021-01-21 05:00:00 8.6 4 Oeste 17 Sudoeste 0.2 -- -- 92
2021-01-21 04:00:00 9 6 Sudoeste 24 Sudoeste 0 -- -- 91
2021-01-21 03:00:00 8.9 8 Sudoeste 25 Sudoeste 0 -- -- 90
2021-01-21 02:00:00 9 14 Sudoeste 24 Sudoeste 0 -- -- 89
2021-01-21 01:00:00 8.9 9 Sudoeste 26 Sudoeste 0 -- -- 88
2021-01-21 00:00:00 9.3 11 Sudoeste 27 Sudoeste 0 -- -- 88
2021-01-20 23:00:00 9.3 14 Sudoeste 30 Sudoeste 0 -- -- 88
2021-01-20 22:00:00 9.2 9 Sudoeste 31 Sudoeste 0 -- -- 88
2021-01-20 21:00:00 9.7 10 Sudoeste 25 Sudoeste 0 -- -- 86
2021-01-20 20:00:00 9.9 6 Sudoeste 20 Sudoeste 0 -- -- 87
2021-01-20 19:00:00 10.2 9 Sur 30 Sudoeste 0 -- -- 86
2021-01-20 18:00:00 10.1 13 Sur 22 Sudoeste 0 -- -- 88
2021-01-20 17:00:00 10.3 12 Sur 26 Sur 0 -- -- 88
2021-01-20 16:00:00 10.8 12 Sur 30 Sudoeste 0 -- -- 86
2021-01-20 15:00:00 10.7 16 Sur 41 Sur 0 -- -- 88
2021-01-20 14:00:00 9.3 14 Sur 38 Sur 0 -- -- 89
2021-01-20 13:00:00 8.8 11 Sur 40 Sur 0 -- -- 89
2021-01-20 12:00:00 8.7 12 Sudoeste 29 Sur 0 -- -- 89
2021-01-20 11:00:00 8.4 12 Sudoeste 42 Sur 1.6 -- -- 88
2021-01-20 10:00:00 8 12 Sur 26 Sur 2.4 -- -- 85
2021-01-20 09:00:00 8.2 9 Sudeste 30 Sur 0.2 -- -- 81
2021-01-20 08:00:00 8.6 14 Sur 29 Sur 0 -- -- 79
2021-01-20 07:00:00 8.3 12 Sudoeste 25 Sur 0 -- -- 79
2021-01-20 06:00:00 8.3 12 Sur 21 Sudoeste 0 -- -- 78
2021-01-20 05:00:00 8 3 Sur 15 Sur 0 -- -- 79
2021-01-20 04:00:00 6.3 9 Sudoeste 18 Sudoeste 0 -- -- 86
2021-01-20 03:00:00 3.7 4 Sur 9 Sudeste 0 -- -- 84
2021-01-20 02:00:00 1.8 0 Calma 8 Sudoeste 0 -- -- 81
2021-01-20 01:00:00 1.4 0 Calma 6 Sur 0 -- -- 78
2021-01-20 00:00:00 1.9 0 Calma 9 Sur 0 -- -- 76
2021-01-19 23:00:00 2.5 2 Noroeste 5 Sudoeste 0 -- -- 74
2021-01-19 22:00:00 3.3 3 Sudoeste 8 Sudoeste 0 -- -- 71
2021-01-19 21:00:00 5.8 3 Sur 6 Oeste 0 -- -- 64
2021-01-19 20:00:00 7 0 Calma 8 Sudoeste 0 -- -- 60
2021-01-19 19:00:00 9.7 4 Sudoeste 12 Sudoeste 0 -- -- 54
2021-01-19 18:00:00 12.2 6 Sudoeste 15 Sur 0 -- -- 44
2021-01-19 17:00:00 14.4 9 Sur 14 Sudoeste 0 -- -- 43
2021-01-19 16:00:00 15.3 7 Sudoeste 17 Sur 0 -- -- 41
2021-01-19 15:00:00 14.5 3 Sur 10 Sudoeste 0 -- -- 48
2021-01-19 14:00:00 13.8 4 Sur 12 Este 0 -- -- 52
2021-01-19 13:00:00 11.1 8 Este 13 Este 0 -- -- 72
2021-01-19 12:00:00 7.6 2 Sur 7 Sudoeste 0 -- -- 91
2021-01-19 11:00:00 2.9 2 Sudoeste 6 Oeste 0 -- -- 94
2021-01-19 10:00:00 -1.2 0 Calma 6 Sur 0 -- -- 93
2021-01-19 09:00:00 -1.7 4 Sur 6 Sudoeste 0 -- -- 92
2021-01-19 08:00:00 -1.8 0 Calma 5 Oeste 0 -- -- 91
2021-01-19 07:00:00 -1.5 0 Calma 8 Sudoeste 0 -- -- 90
2021-01-19 06:00:00 -0.9 0 Calma 10 Oeste 0 -- -- 90
2021-01-19 05:00:00 -1.1 2 Oeste 8 Oeste 0 -- -- 89
2021-01-19 04:00:00 -1.5 4 Noroeste 5 Noroeste 0 -- -- 88
2021-01-19 03:00:00 -0.3 2 Oeste 5 Sudoeste 0 -- -- 87
2021-01-19 02:00:00 0 0 Calma 6 Sur 0 -- -- 85
2021-01-19 01:00:00 0.3 4 Noroeste 6 Noroeste 0 -- -- 84
2021-01-19 00:00:00 1.4 0 Calma 5 Noroeste 0 -- -- 81
2021-01-18 23:00:00 1.9 0 Calma 8 Sur 0 -- -- 79
2021-01-18 22:00:00 2.9 2 Oeste 6 Noroeste 0 -- -- 77
2021-01-18 21:00:00 5.1 2 Sudoeste 8 Sudoeste 0 -- -- 71
2021-01-18 20:00:00 6.7 2 Noroeste 7 Sudoeste 0 -- -- 66
2021-01-18 19:00:00 10.5 2 Sudoeste 6 Sur 0 -- -- 58
2021-01-18 18:00:00 13.5 2 Sudeste 14 Sur 0 -- -- 51
2021-01-18 17:00:00 15.2 5 Sudeste 14 Este 0 -- -- 44
2021-01-18 16:00:00 14.9 8 Sudeste 16 Este 0 -- -- 47
2021-01-18 15:00:00 14.2 8 Sudeste 18 Sur 0 -- -- 49
2021-01-18 14:00:00 13.1 7 Este 15 Este 0 -- -- 48
2021-01-18 13:00:00 10.8 5 Este 13 Este 0 -- -- 47
2021-01-18 12:00:00 8 3 Sudoeste 9 Sudeste 0 -- -- 65
2021-01-18 11:00:00 4.1 5 Sudeste 10 Sudeste 0 -- -- 85
2021-01-18 10:00:00 -1.9 0 Calma 7 Sur 0 -- -- 88
2021-01-18 09:00:00 -2.9 2 Noroeste 5 Noroeste 0 -- -- 87
2021-01-18 08:00:00 -3.6 0 Calma 7 Sur 0 -- -- 85
2021-01-18 07:00:00 -3.1 3 Noroeste 5 Noroeste 0 -- -- 85
2021-01-18 06:00:00 -2.7 2 Sudoeste 5 Noroeste 0 -- -- 85
2021-01-18 05:00:00 -2.7 3 Sudoeste 6 Sur 0 -- -- 83
2021-01-18 04:00:00 -2.5 0 Calma 6 Sur 0 -- -- 82
2021-01-18 03:00:00 -1.7 3 Oeste 5 Sudoeste 0 -- -- 81
2021-01-18 02:00:00 -1.2 0 Calma 6 Oeste 0 -- -- 79
2021-01-18 01:00:00 -0.4 4 Sur 6 Sudoeste 0 -- -- 78
2021-01-18 00:00:00 -0.1 0 Calma 5 Noroeste 0 -- -- 76
2021-01-17 23:00:00 1 3 Sudoeste 6 Sudoeste 0 -- -- 73
2021-01-17 22:00:00 1.7 0 Calma 5 Sudoeste 0 -- -- 70
2021-01-17 21:00:00 3.4 0 Calma 4 Sudoeste 0 -- -- 63
2021-01-17 20:00:00 6.1 0 Calma 6 Sudoeste 0 -- -- 58
2021-01-17 19:00:00 10 4 Sur 8 Sur 0 -- -- 48
2021-01-17 18:00:00 14.2 5 Noroeste 11 Noroeste 0 -- -- 35
2021-01-17 17:00:00 15.8 6 Noroeste 12 Oeste 0 -- -- 29
2021-01-17 16:00:00 16.2 5 Oeste 10 Sudoeste 0 -- -- 25
2021-01-17 15:00:00 15.4 7 Oeste 14 Oeste 0 -- -- 31
2021-01-17 14:00:00 14.2 3 Sudoeste 9 Sudoeste 0 -- -- 40
2021-01-17 13:00:00 10.5 4 Sur 6 Sur 0 -- -- 56
2021-01-17 12:00:00 6.3 3 Sudoeste 6 Sur 0 -- -- 76
2021-01-17 11:00:00 2.3 4 Sudoeste 6 Noroeste 0 -- -- 86
2021-01-17 10:00:00 -2.2 2 Sudoeste 7 Sur 0 -- -- 87
2021-01-17 09:00:00 -3.4 3 Oeste 8 Sudoeste 0 -- -- 86
2021-01-17 08:00:00 -3.3 4 Sur 8 Sur 0 -- -- 86
2021-01-17 07:00:00 -3.3 0 Calma 6 Sudoeste 0 -- -- 84
2021-01-17 06:00:00 -3.2 0 Calma 5 Sur 0 -- -- 83
2021-01-17 05:00:00 -2.5 0 Calma 5 Oeste 0 -- -- 82
2021-01-17 04:00:00 -1.9 3 Sudoeste 7 Sudoeste 0 -- -- 82
2021-01-17 03:00:00 -1.8 6 Sur 10 Sur 0 -- -- 81
2021-01-17 02:00:00 -1.7 3 Noroeste 7 Noroeste 0 -- -- 80
2021-01-17 01:00:00 -1.2 2 Oeste 6 Sur 0 -- -- 77
2021-01-17 00:00:00 -0.4 4 Noroeste 9 Sur 0 -- -- 75
2021-01-16 23:00:00 0.6 4 Oeste 9 Noroeste 0 -- -- 74
2021-01-16 22:00:00 1.2 0 Calma 9 Sudoeste 0 -- -- 71
2021-01-16 21:00:00 2 4 Noroeste 11 Sudoeste 0 -- -- 66
2021-01-16 20:00:00 4.9 0 Calma 5 Sur 0 -- -- 56
2021-01-16 19:00:00 9 2 Sur 9 Sudeste 0 -- -- 46
2021-01-16 18:00:00 11.9 2 Norte 12 Norte 0 -- -- 32
2021-01-16 17:00:00 12.8 9 Noroeste 17 Noroeste 0 -- -- 31
2021-01-16 16:00:00 13.3 9 Norte 23 Nordeste 0 -- -- 32
2021-01-16 15:00:00 13.2 7 Norte 19 Noroeste 0 -- -- 33
2021-01-16 14:00:00 11.9 8 Noroeste 17 Noroeste 0 -- -- 50
2021-01-16 13:00:00 8.9 4 Sur 8 Este 0 -- -- 81
2021-01-16 12:00:00 5.5 5 Este 10 Este 0 -- -- 90
2021-01-16 11:00:00 1.6 4 Sur 5 Sur 0 -- -- 94
2021-01-16 10:00:00 -2.3 0 Calma 5 Oeste 0 -- -- 93
2021-01-16 09:00:00 -3.3 0 Calma 6 Sur 0 -- -- 91
2021-01-16 08:00:00 -3.4 3 Sudoeste 9 Oeste 0 -- -- 91
2021-01-16 07:00:00 -3.4 4 Oeste 6 Oeste 0 -- -- 91
2021-01-16 06:00:00 -3 3 Oeste 6 Noroeste 0 -- -- 91
2021-01-16 05:00:00 -2.8 0 Calma 5 Sudoeste 0 -- -- 90
2021-01-16 04:00:00 -2.2 0 Calma 6 Sudoeste 0 -- -- 89
2021-01-16 03:00:00 -1.6 5 Oeste 8 Oeste 0 -- -- 89
2021-01-16 02:00:00 -1.4 2 Sudoeste 8 Oeste 0 -- -- 89
2021-01-16 01:00:00 -1.2 0 Calma 7 Oeste 0 -- -- 87
2021-01-16 00:00:00 -0.8 0 Calma 6 Oeste 0 -- -- 85
2021-01-15 23:00:00 -0.6 0 Calma 4 Sur 0 -- -- 83
2021-01-15 22:00:00 0.2 0 Calma 5 Sur 0 -- -- 81
2021-01-15 21:00:00 1.6 3 Sudoeste 6 Sudoeste 0 -- -- 78
2021-01-15 20:00:00 3.8 3 Sudoeste 6 Sur 0 -- -- 74
2021-01-15 19:00:00 6.3 5 Sur 10 Noroeste 0 -- -- 67
2021-01-15 18:00:00 8.6 3 Noroeste 10 Sudeste 0 -- -- 60
2021-01-15 17:00:00 9.2 4 Este 20 Norte 0 -- -- 60
2021-01-15 16:00:00 10 10 Norte 22 Nordeste 0 -- -- 57
2021-01-15 15:00:00 9.7 14 Nordeste 23 Nordeste 0 -- -- 59
2021-01-15 14:00:00 9.8 9 Nordeste 15 Norte 0 -- -- 63
2021-01-15 13:00:00 8.6 5 Este 13 Sudeste 0 -- -- 80
2021-01-15 12:00:00 6.1 2 Sudeste 7 Este 0 -- -- 91
2021-01-15 11:00:00 2.2 4 Sur 6 Sur 0 -- -- 93
2021-01-15 10:00:00 -1.9 3 Oeste 6 Sudoeste 0 -- -- 92
2021-01-15 09:00:00 -3.1 3 Oeste 7 Sudoeste 0 -- -- 91
2021-01-15 08:00:00 -3.1 0 Calma 6 Sur 0 -- -- 90
2021-01-15 07:00:00 -2.8 0 Calma 5 Oeste 0 -- -- 90
2021-01-15 06:00:00 -2.5 2 Oeste 4 Oeste 0 -- -- 90
2021-01-15 05:00:00 -1.8 0 Calma 6 Oeste 0 -- -- 89
2021-01-15 04:00:00 -2.1 0 Calma 8 Sur 0 -- -- 88
2021-01-15 03:00:00 -1.5 0 Calma 6 Noroeste 0 -- -- 87
2021-01-15 02:00:00 -1 2 Sudoeste 6 Noroeste 0 -- -- 86
2021-01-15 01:00:00 -0.5 0 Calma 7 Sudoeste 0 -- -- 84
2021-01-15 00:00:00 0.8 0 Calma 6 Sudoeste 0 -- -- 83
2021-01-14 23:00:00 1.5 0 Calma 9 Oeste 0 -- -- 81
2021-01-14 22:00:00 2.3 0 Calma 5 Sur 0 -- -- 78
2021-01-14 21:00:00 4.6 3 Sudoeste 11 Oeste 0 -- -- 74
2021-01-14 20:00:00 5.6 5 Oeste 9 Sudoeste 0 -- -- 68
2021-01-14 19:00:00 8.3 4 Sudoeste 15 Noroeste 0 -- -- 55
2021-01-14 18:00:00 10.8 6 Noroeste 13 Noroeste 0 -- -- 47
2021-01-14 17:00:00 12.2 7 Noroeste 14 Noroeste 0 -- -- 35
2021-01-14 16:00:00 13.1 9 Noroeste 17 Noroeste 0 -- -- 33
2021-01-14 15:00:00 12.5 4 Sudoeste 10 Sudoeste 0 -- -- 49
2021-01-14 14:00:00 11.4 4 Sur 8 Sur 0 -- -- 57
2021-01-14 13:00:00 8.1 4 Sur 8 Sudoeste 0 -- -- 76
2021-01-14 12:00:00 4.7 3 Sudoeste 5 Sudoeste 0 -- -- 87
2021-01-14 11:00:00 1.4 4 Sur 5 Noroeste 0 -- -- 91
2021-01-14 10:00:00 -1.9 4 Oeste 7 Oeste 0 -- -- 90
2021-01-14 09:00:00 -2.8 0 Calma 4 Sur 0 -- -- 90
2021-01-14 08:00:00 -2.7 0 Calma 7 Oeste 0 -- -- 89
2021-01-14 07:00:00 -2.8 2 Oeste 7 Sudoeste 0 -- -- 89
2021-01-14 06:00:00 -2.7 0 Calma 6 Oeste 0 -- -- 88
2021-01-14 05:00:00 -2.4 3 Sudoeste 5 Sudoeste 0 -- -- 87
2021-01-14 04:00:00 -2.3 0 Calma 4 Noroeste 0 -- -- 86
2021-01-14 03:00:00 -1.8 0 Calma 5 Sudoeste 0 -- -- 85
2021-01-14 02:00:00 -1.3 2 Sudoeste 6 Sudoeste 0 -- -- 83
2021-01-14 01:00:00 -0.8 3 Sur 5 Sur 0 -- -- 82
2021-01-14 00:00:00 -0.3 0 Calma 5 Sur 0 -- -- 80
2021-01-13 23:00:00 0.1 3 Oeste 8 Oeste 0 -- -- 77
2021-01-13 22:00:00 1.4 3 Noroeste 6 Sur 0 -- -- 73
2021-01-13 21:00:00 2.1 0 Calma 5 Noroeste 0 -- -- 69
2021-01-13 20:00:00 3.5 0 Calma 7 Sur 0 -- -- 63
2021-01-13 19:00:00 7.2 0 Calma 8 Sudoeste 0 -- -- 54
2021-01-13 18:00:00 11.1 4 Oeste 9 Sudoeste 0 -- -- 41
2021-01-13 17:00:00 12.3 3 Noroeste 12 Norte 0 -- -- 39
2021-01-13 16:00:00 11.8 9 Noroeste 17 Oeste 0 -- -- 40
2021-01-13 15:00:00 11.9 7 Noroeste 14 Sudoeste 0 -- -- 35
2021-01-13 14:00:00 10.4 7 Oeste 14 Sudoeste 0 -- -- 47
2021-01-13 13:00:00 6.9 4 Noroeste 9 Sudoeste 0 -- -- 73
2021-01-13 12:00:00 4 0 Calma 6 Sudoeste 0 -- -- 89
2021-01-13 11:00:00 -0.2 2 Noroeste 5 Sur 0 -- -- 90
2021-01-13 10:00:00 -3.6 3 Oeste 6 Noroeste 0 -- -- 90
2021-01-13 09:00:00 -4.4 3 Oeste 6 Sudoeste 0 -- -- 89
2021-01-13 08:00:00 -4.3 3 Sudoeste 6 Oeste 0 -- -- 89
2021-01-13 07:00:00 -4.6 0 Calma 4 Sur 0 -- -- 89
2021-01-13 06:00:00 -4.1 0 Calma 6 Oeste 0 -- -- 88
2021-01-13 05:00:00 -4.1 0 Calma 5 Sudoeste 0 -- -- 88
2021-01-13 04:00:00 -3.7 0 Calma 5 Noroeste 0 -- -- 87
2021-01-13 03:00:00 -3.1 3 Sudoeste 7 Noroeste 0 -- -- 86
2021-01-13 02:00:00 -3 2 Sudoeste 7 Sudoeste 0 -- -- 85
2021-01-13 01:00:00 -2.5 0 Calma 7 Oeste 0 -- -- 84
2021-01-13 00:00:00 -2.1 0 Calma 5 Oeste 0 -- -- 82
2021-01-12 23:00:00 -1.6 2 Noroeste 6 Sudoeste 0 -- -- 80
2021-01-12 22:00:00 -0.8 2 Oeste 8 Sudoeste 0 -- -- 78
2021-01-12 21:00:00 0.2 2 Sudoeste 4 Sur 0 -- -- 75
2021-01-12 20:00:00 2 3 Sudoeste 5 Sudoeste 0 -- -- 69
2021-01-12 19:00:00 4.3 0 Calma 6 Sudoeste 0 -- -- 60
2021-01-12 18:00:00 7.4 5 Sudoeste 10 Sudoeste 0 -- -- 49
2021-01-12 17:00:00 9 4 Sudoeste 12 Este 0 -- -- 45
2021-01-12 16:00:00 8.2 5 Este 15 Este 0 -- -- 48
2021-01-12 15:00:00 7.5 5 Este 15 Este 0 -- -- 52
2021-01-12 14:00:00 6.2 7 Este 15 Este 0 -- -- 56
2021-01-12 13:00:00 4.2 8 Este 17 Este 0 -- -- 69
2021-01-12 12:00:00 2.3 4 Este 9 Este 0 -- -- 85
2021-01-12 11:00:00 -0.8 0 Calma 6 Sur 0 -- -- 90
2021-01-12 10:00:00 -4.4 3 Noroeste 8 Sudoeste 0 -- -- 90
2021-01-12 09:00:00 -5.8 3 Oeste 6 Noroeste 0 -- -- 89
2021-01-12 08:00:00 -5.7 2 Oeste 6 Sudoeste 0 -- -- 88
2021-01-12 07:00:00 -5.7 4 Noroeste 6 Sudoeste 0 -- -- 88
2021-01-12 06:00:00 -5.3 0 Calma 8 Sudoeste 0 -- -- 87
2021-01-12 05:00:00 -4.9 3 Noroeste 6 Noroeste 0 -- -- 86
2021-01-12 04:00:00 -4.7 2 Sudoeste 5 Sur 0 -- -- 84
2021-01-12 03:00:00 -4.3 2 Oeste 6 Sudoeste 0 -- -- 83
2021-01-12 02:00:00 -3.9 2 Noroeste 6 Noroeste 0 -- -- 82
2021-01-12 01:00:00 -3 3 Sudoeste 6 Sudoeste 0 -- -- 79
2021-01-12 00:00:00 -2.6 2 Oeste 9 Este 0 -- -- 75
2021-01-11 23:00:00 0 6 Este 13 Este 0 -- -- 67
2021-01-11 22:00:00 -0.4 6 Este 11 Este 0 -- -- 70
2021-01-11 21:00:00 0.8 5 Sudeste 18 Este 0 -- -- 65
2021-01-11 20:00:00 1.4 8 Este 20 Norte 0 -- -- 64
2021-01-11 19:00:00 2 5 Este 22 Este 0 -- -- 64
2021-01-11 18:00:00 3.2 8 Nordeste 19 Noroeste 0 -- -- 59
2021-01-11 17:00:00 4.5 9 Norte 22 Norte 0 -- -- 56
2021-01-11 16:00:00 4.9 11 Norte 24 Noroeste 0 -- -- 57
2021-01-11 15:00:00 4.9 8 Norte 21 Nordeste 0 -- -- 67
2021-01-11 14:00:00 4 9 Norte 23 Noroeste 0 -- -- 74
2021-01-11 13:00:00 3.2 11 Norte 22 Nordeste 0 -- -- 75
2021-01-11 12:00:00 2.6 11 Norte 19 Norte 0 -- -- 77
2021-01-11 11:00:00 1.7 5 Este 14 Norte 0 -- -- 82
2021-01-11 10:00:00 -0.3 4 Sur 12 Sudeste 0 -- -- 84
2021-01-11 09:00:00 -0.6 3 Este 15 Este 0 -- -- 83
2021-01-11 08:00:00 -0.2 8 Nordeste 18 Nordeste 0 -- -- 83
2021-01-11 07:00:00 -0.1 3 Norte 14 Sudeste 0 -- -- 85
2021-01-11 06:00:00 0.3 4 Este 22 Norte 0 -- -- 85
2021-01-11 05:00:00 0.6 12 Norte 22 Norte 0 -- -- 85
2021-01-11 04:00:00 1.1 3 Nordeste 13 Norte 0 -- -- 85
2021-01-11 03:00:00 1.7 2 Nordeste 23 Norte 0 -- -- 86
2021-01-11 02:00:00 1.6 9 Norte 24 Este 0 -- -- 86
2021-01-11 01:00:00 2 8 Este 19 Este 0 -- -- 88
2021-01-11 00:00:00 2.1 6 Este 17 Este 0 -- -- 89
2021-01-10 23:00:00 2 8 Este 22 Este 0 -- -- 90
2021-01-10 22:00:00 1.6 6 Este 21 Nordeste 0 -- -- 89
2021-01-10 21:00:00 1.1 5 Nordeste 11 Nordeste 0 -- -- 88
2021-01-10 20:00:00 1.6 3 Oeste 21 Norte 0 -- -- 86
2021-01-10 19:00:00 2.2 6 Nordeste 26 Norte 0 -- -- 84
2021-01-10 18:00:00 3.1 12 Norte 24 Norte 0 -- -- 83
2021-01-10 17:00:00 4.8 6 Nordeste 20 Norte 0 -- -- 86
2021-01-10 16:00:00 4.3 3 Sudoeste 13 Sudeste 0 -- -- 89
2021-01-10 15:00:00 3.6 7 Este 14 Sudeste 0 -- -- 92
2021-01-10 14:00:00 2.8 4 Este 12 Este 0 -- -- 93
2021-01-10 13:00:00 1.8 4 Sur 18 Norte 0 -- -- 93
2021-01-10 12:00:00 1.7 8 Noroeste 18 Norte 0 -- -- 94
2021-01-10 11:00:00 2.4 5 Sudeste 12 Sudeste 0 -- -- 94
2021-01-10 10:00:00 0.4 5 Sur 11 Sudoeste 0 -- -- 95
2021-01-10 09:00:00 0.3 4 Sudoeste 7 Oeste 0 -- -- 94
2021-01-10 08:00:00 0.7 2 Este 7 Este 0 -- -- 94
2021-01-10 07:00:00 0.6 3 Oeste 10 Sudeste 0.4 -- -- 93
2021-01-10 06:00:00 0.6 5 Este 13 Este 1.4 -- -- 93
2021-01-10 05:00:00 0.7 6 Sudeste 17 Sudeste 0.2 -- -- 92
2021-01-10 04:00:00 0.6 10 Sudeste 16 Sudeste 0.6 -- -- 91
2021-01-10 03:00:00 0.6 10 Este 21 Este 0 -- -- 88
2021-01-10 02:00:00 0.7 7 Este 12 Este 0 -- -- 89
2021-01-10 01:00:00 0.5 4 Sudeste 19 Este 0 -- -- 89
2021-01-10 00:00:00 0.5 10 Este 15 Este 0 -- -- 89
2021-01-09 23:00:00 0.8 6 Este 17 Este 0 -- -- 88
2021-01-09 22:00:00 1.3 5 Este 13 Este 0 -- -- 88
2021-01-09 21:00:00 1.8 6 Este 17 Este 0 -- -- 90
2021-01-09 20:00:00 2 11 Este 18 Este 0 -- -- 91
2021-01-09 19:00:00 2.5 5 Sudeste 16 Este 0 -- -- 92
2021-01-09 18:00:00 2.7 5 Sudeste 12 Sur 0 -- -- 92
2021-01-09 17:00:00 3.3 9 Sudoeste 21 Sur 0.2 -- -- 93
2021-01-09 16:00:00 3.4 9 Sur 24 Sur 0 -- -- 94
2021-01-09 15:00:00 4.4 15 Sur 28 Sudoeste 0 -- -- 94
2021-01-09 14:00:00 4 10 Sur 27 Sur 0.4 -- -- 96
2021-01-09 13:00:00 3.6 13 Sur 26 Sudeste 0 -- -- 96
2021-01-09 12:00:00 3.9 9 Sudoeste 19 Sudoeste 0 -- -- 97
2021-01-09 11:00:00 3.5 10 Sur 20 Sudeste 0 -- -- 97
2021-01-09 10:00:00 3.7 9 Sur 18 Sur 0 -- -- 97
2021-01-09 09:00:00 3.9 10 Sudoeste 20 Sur 0 -- -- 97
2021-01-09 08:00:00 4 6 Sudoeste 18 Sudoeste 0 -- -- 98
2021-01-09 07:00:00 3.8 5 Noroeste 14 Oeste 0 -- -- 98
2021-01-09 06:00:00 3.7 5 Noroeste 10 Noroeste 0.2 -- -- 98
2021-01-09 05:00:00 3.6 4 Noroeste 10 Oeste 0.2 -- -- 98
2021-01-09 04:00:00 3.1 5 Oeste 13 Oeste 0 -- -- 97
2021-01-09 03:00:00 4.7 5 Este 23 Este 1.2 -- -- 98
2021-01-09 02:00:00 3.1 10 Este 20 Este 1.4 -- -- 97
2021-01-09 01:00:00 2.9 9 Este 17 Este 1.8 -- -- 97
2021-01-09 00:00:00 2.2 2 Sudoeste 8 Sur 2 -- -- 97
2021-01-08 23:00:00 2.2 5 Sudoeste 11 Sudoeste 2 -- -- 96
2021-01-08 22:00:00 2.6 4 Sur 10 Sudoeste 3 -- -- 96
2021-01-08 21:00:00 2.9 5 Norte 10 Sur 2.2 -- -- 96
2021-01-08 20:00:00 3.4 5 Nordeste 23 Nordeste 1 -- -- 96
2021-01-08 19:00:00 3.3 6 Este 19 Este 0.2 -- -- 96
2021-01-08 18:00:00 3.2 7 Este 21 Este 1.4 -- -- 96
2021-01-08 17:00:00 3.1 8 Sudeste 15 Sudeste 1.4 -- -- 96
2021-01-08 16:00:00 3.1 8 Este 16 Este 1.8 -- -- 96
2021-01-08 15:00:00 3.2 6 Sudeste 12 Este 1.8 -- -- 96
2021-01-08 14:00:00 2.8 5 Este 16 Sudeste 2.2 -- -- 96
2021-01-08 13:00:00 2.6 6 Este 17 Sudeste 1.4 -- -- 96
2021-01-08 12:00:00 2.5 8 Este 15 Sudeste 0.4 -- -- 96
2021-01-08 11:00:00 2.2 7 Este 17 Este 0.8 -- -- 96
2021-01-08 10:00:00 1.5 3 Sur 12 Sudeste 0.8 -- -- 96
2021-01-08 09:00:00 1.3 7 Sudeste 18 Sudeste 0.6 -- -- 96
2021-01-08 08:00:00 1.3 8 Sudeste 16 Sudeste 0.4 -- -- 95
2021-01-08 07:00:00 1.1 6 Este 12 Este 0.8 -- -- 95
2021-01-08 06:00:00 0.9 0 Calma 10 Sudeste 1 -- -- 95
2021-01-08 05:00:00 0.9 4 Este 11 Sudeste 1.6 -- -- 95
2021-01-08 04:00:00 1.1 4 Este 14 Sudeste 0.4 -- -- 94
2021-01-08 03:00:00 1 7 Sudeste 16 Sudeste 0.8 -- -- 94
2021-01-08 02:00:00 1.4 8 Sudeste 17 Este 0.2 -- -- 94
2021-01-08 01:00:00 1.6 8 Este 15 Sudeste 0 -- -- 93
2021-01-08 00:00:00 1.9 8 Este 25 Este 0 -- -- 94
2021-01-07 23:00:00 1.8 6 Nordeste 28 Nordeste 0 -- -- 94
2021-01-07 22:00:00 1.7 7 Nordeste 29 Este 0 -- -- 94
2021-01-07 21:00:00 1.5 12 Este 27 Este 0 -- -- 95
2021-01-07 20:00:00 1.5 6 Nordeste 23 Norte 0 -- -- 95
2021-01-07 19:00:00 1.6 8 Nordeste 24 Nordeste 0 -- -- 95
2021-01-07 18:00:00 1.4 15 Nordeste 29 Nordeste 0 -- -- 95
2021-01-07 17:00:00 1.9 8 Nordeste 24 Norte 0.2 -- -- 95
2021-01-07 16:00:00 1.8 3 Norte 16 Sudeste 0.2 -- -- 95
2021-01-07 15:00:00 2 5 Nordeste 19 Norte 0.2 -- -- 95
2021-01-07 14:00:00 1.3 8 Nordeste 17 Nordeste 1 -- -- 96
2021-01-07 13:00:00 0.9 5 Sudoeste 8 Sudoeste 0.8 -- -- 95
2021-01-07 12:00:00 1 3 Sudoeste 10 Sudoeste 1 -- -- 95
2021-01-07 11:00:00 1.2 4 Sudoeste 9 Sudoeste 0.4 -- -- 95
2021-01-07 10:00:00 1 3 Oeste 8 Este 0.6 -- -- 95
2021-01-07 09:00:00 0.8 2 Sudoeste 7 Noroeste 1 -- -- 94
2021-01-07 08:00:00 0.9 4 Sudoeste 7 Sur 0.4 -- -- 94
2021-01-07 07:00:00 0.9 4 Sudoeste 8 Sudoeste 0.8 -- -- 93
2021-01-07 06:00:00 0.9 4 Sudoeste 8 Sudoeste 0.8 -- -- 93
2021-01-07 05:00:00 1 2 Sudoeste 7 Este 1 -- -- 92
2021-01-07 04:00:00 1.5 3 Sudeste 12 Este 0.8 -- -- 91
2021-01-07 03:00:00 1.2 5 Este 15 Este 0.6 -- -- 90
2021-01-07 02:00:00 1.5 7 Este 14 Este 0.6 -- -- 87
2021-01-07 01:00:00 2.2 5 Este 10 Sudeste 0.6 -- -- 85
2021-01-07 00:00:00 2.5 0 Calma 10 Sudeste 0.8 -- -- 82
2021-01-06 23:00:00 3.3 6 Sudeste 13 Este 0.2 -- -- 77
2021-01-06 22:00:00 3.3 9 Este 15 Este 0 -- -- 75
2021-01-06 21:00:00 3 8 Este 17 Este 0 -- -- 76
2021-01-06 20:00:00 3.4 11 Este 18 Este 0 -- -- 73
2021-01-06 19:00:00 3.7 9 Este 15 Este 0 -- -- 71
2021-01-06 18:00:00 4 7 Este 14 Este 0 -- -- 69
2021-01-06 17:00:00 4.3 8 Este 16 Este 0 -- -- 68
2021-01-06 16:00:00 4.7 10 Este 18 Este 0 -- -- 68
2021-01-06 15:00:00 5.2 4 Sudeste 9 Sudoeste 0 -- -- 73
2021-01-06 14:00:00 3.7 4 Sudoeste 10 Sudoeste 0 -- -- 82
2021-01-06 13:00:00 0.9 0 Calma 7 Sur 0 -- -- 89
2021-01-06 12:00:00 -0.7 4 Sur 8 Sur 0 -- -- 90
2021-01-06 11:00:00 -2.5 3 Sur 6 Sudoeste 0 -- -- 90
2021-01-06 10:00:00 -4.4 0 Calma 6 Noroeste 0 -- -- 89
2021-01-06 09:00:00 -5.3 2 Sudoeste 6 Sudoeste 0 -- -- 89
2021-01-06 08:00:00 -5 3 Sudoeste 7 Sur 0 -- -- 89
2021-01-06 07:00:00 -5.3 2 Noroeste 6 Sur 0 -- -- 87
2021-01-06 06:00:00 -4.9 0 Calma 6 Sudoeste 0 -- -- 87
2021-01-06 05:00:00 -4 3 Sudoeste 6 Oeste 0 -- -- 86
2021-01-06 04:00:00 -4.3 2 Noroeste 9 Sudoeste 0 -- -- 84
2021-01-06 03:00:00 -3.4 0 Calma 4 Sur 0 -- -- 83
2021-01-06 02:00:00 -2.7 2 Oeste 9 Este 0 -- -- 80
2021-01-06 01:00:00 -0.7 6 Este 11 Este 0 -- -- 79
2021-01-06 00:00:00 0.4 6 Este 13 Este 0 -- -- 75
2021-01-05 23:00:00 1.3 6 Este 16 Este 0 -- -- 75
2021-01-05 22:00:00 1.5 7 Este 15 Sudeste 0 -- -- 76
2021-01-05 21:00:00 1.9 6 Sudeste 14 Este 0 -- -- 74
2021-01-05 20:00:00 2.5 4 Sudoeste 20 Norte 0 -- -- 73
2021-01-05 19:00:00 3.1 10 Norte 20 Norte 0 -- -- 77
2021-01-05 18:00:00 4.7 12 Nordeste 24 Nordeste 0 -- -- 74
2021-01-05 17:00:00 6.4 6 Sudeste 12 Este 0 -- -- 79
2021-01-05 16:00:00 5.6 5 Noroeste 15 Noroeste 0 -- -- 89
2021-01-05 15:00:00 5.5 5 Sudoeste 14 Sur 0 -- -- 95
2021-01-05 14:00:00 3.6 5 Oeste 12 Sudoeste 0 -- -- 97
2021-01-05 13:00:00 2.5 6 Sudoeste 12 Sudoeste 0 -- -- 97
2021-01-05 12:00:00 0.9 5 Sudeste 13 Este 0 -- -- 97
2021-01-05 11:00:00 -0.2 5 Este 12 Sudeste 0 -- -- 97
2021-01-05 10:00:00 -0.7 5 Este 10 Sudeste 0 -- -- 96
2021-01-05 09:00:00 -0.9 4 Sudeste 9 Este 0 -- -- 96
2021-01-05 08:00:00 -1 2 Oeste 6 Sur 0 -- -- 96
2021-01-05 07:00:00 -0.6 0 Calma 10 Este 0 -- -- 95
2021-01-05 06:00:00 -0.1 6 Sudeste 11 Este 0 -- -- 95
2021-01-05 05:00:00 -0.3 3 Sudeste 8 Sudeste 0 -- -- 95
2021-01-05 04:00:00 -1.3 3 Noroeste 5 Sudoeste 0 -- -- 94
2021-01-05 03:00:00 -0.3 4 Sur 6 Sur 0 -- -- 94
2021-01-05 02:00:00 0.3 4 Sudoeste 8 Oeste 0 -- -- 94
2021-01-05 01:00:00 0.4 5 Oeste 10 Oeste 0 -- -- 93
2021-01-05 00:00:00 0.6 5 Oeste 12 Oeste 0 -- -- 93
2021-01-04 23:00:00 0.4 4 Noroeste 8 Sudoeste 0 -- -- 93
2021-01-04 22:00:00 1 4 Oeste 8 Noroeste 0 -- -- 92
2021-01-04 21:00:00 1.6 3 Oeste 9 Oeste 0 -- -- 91
2021-01-04 20:00:00 2.1 3 Oeste 10 Sudoeste 0 -- -- 91
2021-01-04 19:00:00 3.2 6 Sudoeste 15 Sudoeste 0 -- -- 90
2021-01-04 18:00:00 3.5 4 Sudoeste 16 Sur 0.4 -- -- 90
2021-01-04 17:00:00 3.7 5 Oeste 15 Noroeste 0.4 -- -- 89
2021-01-04 16:00:00 4.2 7 Sudoeste 18 Sudoeste 0.2 -- -- 86
2021-01-04 15:00:00 4.1 11 Oeste 26 Oeste 0 -- -- 84
2021-01-04 14:00:00 4.5 7 Sudoeste 20 Oeste 0 -- -- 85
2021-01-04 13:00:00 3.9 8 Sudoeste 19 Sudoeste 0 -- -- 87
2021-01-04 12:00:00 3.1 10 Oeste 18 Oeste 0 -- -- 90
2021-01-04 11:00:00 1.9 5 Oeste 12 Noroeste 0 -- -- 92
2021-01-04 10:00:00 0.5 5 Noroeste 12 Oeste 0 -- -- 91
2021-01-04 09:00:00 -0.4 6 Oeste 10 Noroeste 0 -- -- 90
2021-01-04 08:00:00 -0.1 5 Noroeste 8 Noroeste 0 -- -- 90
2021-01-04 07:00:00 -1.5 4 Oeste 9 Oeste 0 -- -- 90
2021-01-04 06:00:00 -2.6 5 Noroeste 8 Noroeste 0 -- -- 89
2021-01-04 05:00:00 -2.3 3 Noroeste 6 Noroeste 0 -- -- 87
2021-01-04 04:00:00 -1.8 0 Calma 5 Noroeste 0 -- -- 85
2021-01-04 03:00:00 -1.2 5 Noroeste 9 Noroeste 0 -- -- 85
2021-01-04 02:00:00 -0.9 0 Calma 6 Noroeste 0 -- -- 84
2021-01-04 01:00:00 0.1 5 Oeste 8 Oeste 0 -- -- 83
2021-01-04 00:00:00 0.4 2 Oeste 9 Oeste 0 -- -- 82
2021-01-03 23:00:00 0.3 5 Oeste 9 Oeste 0 -- -- 81
2021-01-03 22:00:00 0.7 4 Noroeste 10 Oeste 0 -- -- 77
2021-01-03 21:00:00 1.5 4 Oeste 7 Noroeste 0 -- -- 75
2021-01-03 20:00:00 1.6 4 Oeste 8 Oeste 0 -- -- 74
2021-01-03 19:00:00 2.9 4 Sudoeste 13 Sudoeste 0 -- -- 67
2021-01-03 18:00:00 5.4 4 Oeste 16 Sudoeste 0 -- -- 58
2021-01-03 17:00:00 6.9 8 Oeste 22 Oeste 0 -- -- 56
2021-01-03 16:00:00 7.5 12 Sudoeste 27 Oeste 0 -- -- 52
2021-01-03 15:00:00 7.3 10 Sudoeste 24 Sudoeste 0 -- -- 55
2021-01-03 14:00:00 6.5 11 Sudoeste 26 Sudoeste 0 -- -- 59
2021-01-03 13:00:00 6 12 Sudoeste 25 Oeste 0 -- -- 62
2021-01-03 12:00:00 4.2 6 Sudoeste 14 Sudoeste 0 -- -- 76
2021-01-03 11:00:00 0.5 4 Oeste 7 Oeste 0 -- -- 84
2021-01-03 10:00:00 -3.3 0 Calma 4 Sudoeste 0 -- -- 86
2021-01-03 09:00:00 -4.9 0 Calma 6 Sur 0 -- -- 83
2021-01-03 08:00:00 -4.5 0 Calma 5 Sur 0 -- -- 81
2021-01-03 07:00:00 -4.1 0 Calma 6 Oeste 0 -- -- 80
2021-01-03 06:00:00 -3.3 5 Noroeste 9 Oeste 0 -- -- 79
2021-01-03 05:00:00 -2.3 3 Sudoeste 9 Oeste 0 -- -- 77
2021-01-03 04:00:00 -2.4 5 Oeste 11 Sudoeste 0 -- -- 79
2021-01-03 03:00:00 -2 4 Oeste 6 Oeste 0 -- -- 78
2021-01-03 02:00:00 -1.8 0 Calma 10 Oeste 0 -- -- 78
2021-01-03 01:00:00 -1.2 7 Oeste 10 Oeste 0 -- -- 77
2021-01-03 00:00:00 -0.9 3 Oeste 7 Oeste 0 -- -- 76
2021-01-02 23:00:00 0.3 4 Sudoeste 10 Oeste 0 -- -- 72
2021-01-02 22:00:00 1.4 4 Sudoeste 15 Norte 0 -- -- 70
2021-01-02 21:00:00 2.3 8 Noroeste 21 Noroeste 0 -- -- 70
2021-01-02 20:00:00 2.3 9 Oeste 18 Noroeste 0 -- -- 73
2021-01-02 19:00:00 3.1 5 Oeste 16 Oeste 0 -- -- 67
2021-01-02 18:00:00 4.7 7 Oeste 21 Oeste 0 -- -- 61
2021-01-02 17:00:00 5.8 10 Noroeste 25 Oeste 0 -- -- 58
2021-01-02 16:00:00 5.8 14 Noroeste 27 Oeste 0 -- -- 61
2021-01-02 15:00:00 5.7 12 Oeste 27 Oeste 0 -- -- 63
2021-01-02 14:00:00 5 14 Oeste 26 Oeste 0 -- -- 81